Kelso-Longview, WA
on Saturday, November 10, 2012

Saturday
Previous Day Next Day
Daily Summary
 ActualAverage (KSPB)Record (KSPB)
Temperature
Mean Temperature °F °F  
Max Temperature 44°F °F 57°F (2001)
Min Temperature 30°F °F 28°F (2012)
Degree Days
Heating Degree Days 28    
Month to date heating degree days  
Since 1 July heating degree days  
Cooling Degree Days 0    
Month to date cooling degree days  
Year to date cooling degree days  
Moisture
Dew Point 31°F   
Average Humidity 83    
Maximum Humidity 93    
Minimum Humidity 66    
Precipitation
Precipitation 0.00 in in 1.26 in (2006)
Month to date precipitation  
Year to date precipitation  
Wind
Wind Speed 1 mph   
Max Wind Speed 10 mph   
Max Gust Speed mph   
Visibility 6 miles   
Events     

Key: T is trace of precipitation, MM is missing value
Source: NWS Daily Summary
Time(PST)TemperatureDew PointHumidity Pressure Visibility Wind DirectionWind SpeedGust SpeedPrecipitationEvents Conditions
12:15 AM 30.2°F 26.6°F 86% 29.96 in 0.2 miles Calm Calm - N/A   Overcast
12:35 AM 30.2°F 28.4°F 93% 29.96 in 0.8 miles Calm Calm - N/A   Overcast
12:55 AM 30.2°F 26.6°F 86% 29.97 in 1.0 miles Calm Calm - N/A   Overcast
1:15 AM 30.2°F 28.4°F 93% 29.97 in 0.2 miles Calm Calm - N/A   Overcast
1:35 AM 30.2°F 28.4°F 93% 29.98 in 0.2 miles Calm Calm - N/A   Overcast
1:55 AM 30.2°F 28.4°F 93% 29.99 in 0.2 miles Calm Calm - N/A   Overcast
2:15 AM 30.2°F 28.4°F 93% 30.00 in 1.0 miles Calm Calm - N/A   Overcast
2:35 AM 30.2°F 28.4°F 93% 30.00 in 0.8 miles Calm Calm - N/A   Overcast
2:55 AM 30.2°F 28.4°F 93% 30.00 in 0.5 miles Calm Calm - N/A   Overcast
3:15 AM 30.2°F 28.4°F 93% 30.00 in 0.2 miles Calm Calm - N/A   Overcast
3:35 AM 30.2°F 28.4°F 93% 30.01 in 0.2 miles Calm Calm - N/A   Overcast
3:55 AM 30.2°F 28.4°F 93% 30.01 in 0.2 miles Calm Calm - N/A   Overcast
4:15 AM 30.2°F 28.4°F 93% 30.02 in 0.2 miles NE 3.5 mph - N/A   Overcast
4:35 AM 30.2°F 28.4°F 93% 30.03 in 0.2 miles Calm Calm - N/A   Overcast
4:55 AM 30.2°F 28.4°F 93% 30.03 in 0.2 miles Calm Calm - N/A   Overcast
5:15 AM 30.2°F 28.4°F 93% 30.04 in 0.2 miles NNE 3.5 mph - N/A   Overcast
5:35 AM 30.2°F 28.4°F 93% 30.05 in 0.2 miles Calm Calm - N/A   Overcast
5:55 AM 30.2°F 28.4°F 93% 30.04 in 0.2 miles Calm Calm - N/A   Overcast
6:15 AM 30.2°F 28.4°F 93% 30.05 in 0.8 miles Calm Calm - N/A   Overcast
6:35 AM 30.2°F 28.4°F 93% 30.05 in 2.0 miles Calm Calm - N/A   Overcast
6:55 AM 30.2°F 28.4°F 93% 30.06 in 1.8 miles NNW 3.5 mph - N/A   Overcast
7:15 AM 30.2°F 28.4°F 93% 30.07 in 10.0 miles Calm Calm - N/A   Overcast
7:35 AM 32.0°F 28.4°F 87% 30.07 in 1.0 miles Calm Calm - N/A   Overcast
7:55 AM 32.0°F 28.4°F 87% 30.08 in 0.5 miles Calm Calm - N/A   Overcast
8:15 AM 32.0°F 30.2°F 93% 30.08 in 0.2 miles Calm Calm - N/A   Overcast
8:35 AM 32.0°F 30.2°F 93% 30.09 in 0.2 miles Calm Calm - N/A   Overcast
8:55 AM 32.0°F 30.2°F 93% 30.09 in 2.5 miles Calm Calm - N/A   Overcast
9:15 AM 33.8°F 30.2°F 87% 30.10 in 9.0 miles Calm Calm - N/A   Overcast
9:35 AM 33.8°F 30.2°F 87% 30.10 in 10.0 miles Calm Calm - N/A   Overcast
9:55 AM 33.8°F 30.2°F 87% 30.11 in 10.0 miles Calm Calm - N/A   Overcast
10:15 AM 35.6°F 30.2°F 81% 30.12 in 10.0 miles Calm Calm - N/A   Overcast
10:35 AM 35.6°F 30.2°F 81% 30.12 in 10.0 miles Calm Calm - N/A   Overcast
10:55 AM 37.4°F 33.8°F 87% 30.12 in 9.0 miles Calm Calm - N/A   Mostly Cloudy
11:15 AM 39.2°F 33.8°F 81% 30.12 in 8.0 miles Calm Calm - N/A   Overcast
11:35 AM 39.2°F 33.8°F 81% 30.13 in 8.0 miles Calm Calm - N/A   Overcast
11:55 AM 41.0°F 33.8°F 76% 30.13 in 8.0 miles Calm Calm - N/A   Overcast
12:15 PM 42.8°F 35.6°F 76% 30.13 in 9.0 miles South 6.9 mph - N/A   Overcast
12:35 PM 42.8°F 35.6°F 76% 30.14 in 8.0 miles South 4.6 mph - N/A   Overcast
12:55 PM 42.8°F 35.6°F 76% 30.14 in 9.0 miles South 5.8 mph - N/A   Mostly Cloudy
1:15 PM 42.8°F 33.8°F 70% 30.14 in 10.0 miles South 6.9 mph - N/A   Overcast
1:35 PM 42.8°F 33.8°F 70% 30.14 in 10.0 miles SSE 6.9 mph - N/A   Mostly Cloudy
1:55 PM 44.6°F 33.8°F 66% 30.14 in 10.0 miles SSE 6.9 mph - N/A   Clear
2:15 PM 44.6°F 33.8°F 66% 30.14 in 10.0 miles SSE 5.8 mph - N/A   Partly Cloudy
2:35 PM 44.6°F 33.8°F 66% 30.14 in 10.0 miles South 10.4 mph - N/A   Mostly Cloudy
2:55 PM 44.6°F 33.8°F 66% 30.14 in 10.0 miles South 8.1 mph - N/A   Mostly Cloudy
3:15 PM 44.6°F 33.8°F 66% 30.15 in 10.0 miles South 5.8 mph - N/A   Scattered Clouds
3:35 PM 44.6°F 33.8°F 66% 30.16 in 10.0 miles South 6.9 mph - N/A   Scattered Clouds
3:55 PM 44.6°F 33.8°F 66% 30.16 in 10.0 miles SSW 4.6 mph - N/A   Scattered Clouds
4:15 PM 44.6°F 33.8°F 66% 30.16 in 10.0 miles South 5.8 mph - N/A   Mostly Cloudy
4:35 PM 42.8°F 32.0°F 66% 30.16 in 10.0 miles SSE 5.8 mph - N/A   Overcast
4:55 PM 42.8°F 32.0°F 66% 30.16 in 10.0 miles SSE 3.5 mph - N/A   Scattered Clouds
5:15 PM 41.0°F 32.0°F 70% 30.17 in 10.0 miles SE 3.5 mph - N/A   Clear
5:35 PM 39.2°F 30.2°F 70% 30.17 in 10.0 miles Calm Calm - N/A   Partly Cloudy
5:55 PM 37.4°F 30.2°F 75% 30.18 in 10.0 miles Calm Calm - N/A   Clear
6:15 PM 37.4°F 32.0°F 81% 30.19 in 10.0 miles Calm Calm - N/A   Scattered Clouds
6:35 PM 35.6°F 30.2°F 81% 30.19 in 10.0 miles Calm Calm - N/A   Mostly Cloudy
6:55 PM 35.6°F 30.2°F 81% 30.19 in 10.0 miles Calm Calm - N/A   Mostly Cloudy
7:35 PM 33.8°F 30.2°F 87% 30.19 in 10.0 miles Calm Calm - N/A   Clear
8:15 PM 33.8°F 30.2°F 87% 30.20 in 10.0 miles Calm Calm - N/A   Clear
8:35 PM 33.8°F 30.2°F 87% 30.20 in 10.0 miles Calm Calm - N/A   Partly Cloudy
8:55 PM 33.8°F 30.2°F 87% 30.21 in 10.0 miles Calm Calm - N/A   Partly Cloudy
9:35 PM 35.6°F 30.2°F 81% 30.21 in 10.0 miles Calm Calm - N/A   Overcast
9:55 PM 33.8°F 30.2°F 87% 30.22 in 10.0 miles Calm Calm - N/A   Mostly Cloudy
10:15 PM 33.8°F 30.2°F 87% 30.22 in 10.0 miles Calm Calm - N/A   Overcast
10:35 PM 35.6°F 32.0°F 87% 30.22 in 10.0 miles Calm Calm - N/A   Overcast
10:55 PM 35.6°F 30.2°F 81% 30.22 in 10.0 miles Calm Calm - N/A   Overcast
11:15 PM 35.6°F 30.2°F 81% 30.22 in 10.0 miles Calm Calm - N/A   Overcast
11:35 PM 35.6°F 30.2°F 81% 30.22 in 9.0 miles Calm Calm - N/A   Overcast
11:55 PM 35.6°F 30.2°F 81% 30.23 in 10.0 miles Calm Calm - N/A   Overcast
Moon Phase
Nov. 10 Nov. 13 Nov. 20 Nov. 28 Dec. 06
Sunrise:07:06 AM (PST) Moon Rise:03:06 AM (PST)11/10
Sunset:04:44 PM (PST) Moon Set:02:43 PM (PST)11/10

Copyright © 2014 The Weather Underground, Inc.